"Pseudo-MPEC" for P112YDn

Created 2020 Aug 6 6:07:09 UT using Find_Orb

Click here for an explanation of pseudo-MPECs

 
 Astrometry: 
     P112YDn  C2020 07 017lB(+BqtM^NXxXlE]q4$0Rg]D_Z\fMMXpU=88?e@Fw$i=;:+?$7aF51
     P112YDn  C2020 07 01a[Fu=f#jxseZ.^E(*BFbe=$YHw]_8x@9N7%Q[X$5NCp\'od28dNWF51
     P112YDn  C2020 07 01',k)*NBB'b5USo,hMd$U-t74iU[sOmT[^7?fYmuQNFbpMLt(YHsHF51
     P112YDn  C2020 07 01l(HMUQtcAstrometrygX,EYHredacted;lTTo\TW-(^'d=P8eB@hF51
     P112YDn  C2020 07 21IP?D9,V:m!M;H\I=r$N%`2-J*7bI3]76g1ZqktdlHZn^]eVa:\GCF51
     P112YDn  C2020 07 21L04hZGKK786rs.=mL/o`XSDC0+]F-diYN#G.$M4;?JglX*`_n/ELF51
     P112YDn  C2020 07 21ciIMO-s\KoysbQCvl=F4/YrI@clickY=lB-pI6#Br(here8g[1]CF51
     P112YDn ^C2020 07 23.48737021 48 24.412-37 29 33.21   ~7NIq 21.58GVNEOCP568
     P112YDn ^C2020 07 23.48831821 48 24.281-37 29 32.84   ~7NIq 21.64GVNEOCP568
     P112YDn ^C2020 07 23.48927421 48 24.149-37 29 32.29   ~7NIq 21.48GVNEOCP568
     P112YDn KC2020 07 23b[s.xtv-SoWK56h\2OR[e/W]7I$rZpvwC^u=[(JP9ue)GomS*Yb;474
     P112YDn KC2020 07 23pSduLx7vth?Yc7:EaD97/BU18HB['^RZ'`!r6u`0.#GH.Fay0^Tu474
     P112YDn KC2020 07 26vW9r8t0jUgKohC,=]`=(c%)J%9bY4^6'1)us1by*v2HZ(NtE0]K9474
     P112YDn KC2020 07 26.*RJc@/THfort]JI0[fc;p`(r@0:01x5J`?#0\wsjEGMIK8^7!aa474
     P112YDn KC2020 07 26\4[F4PVE(EphdMR!JkJ'ssR1explanation2Cff_(Hscn-9%SAJ#474
     P112YDn KC2020 07 26ciPpjTP5$W.Rdsda`PFBRs+[y%h@Pk^suT=O*RT;;,Y4JANTAp,o474

Station data:
(474) Mount John Observatory, Lake Tekapo  (S43.987388 E170.464960)  New
   Zealand.  Observers A. C. Gilmore, P. M. Kilmartin. Measurer P. M.
   Kilmartin. 1.0-m f/7.7 reflector + CCD.
(568) Mauna Kea  (N19.826116 W155.472200)  US/Hawaii.
(F51) Pan-STARRS 1, Haleakala  (N20.707235 W156.255910)  US/Hawaii.
   Observers N. Primak, A. Schultz, S. Watters, J. Thiel, T. Goggia. Measurer
   PS1 Science Consortium. 1.8-m Ritchey-Chrétien + CCD.

Orbital elements:  P112YDn
   Perihelion 2020 Oct 18.795566 +/- 1.02 TT = 19:05:36 (JD 2459141.295566)
Epoch 2020 Jul 26.0 TT = JDT 2459056.5                        AutoNEOCP
M 359.47612966 +/- 0.15             (J2000 ecliptic)
n   0.00617803 +/- 0.00171          Peri.    6.35492 +/- 0.30
a  29.4150060 +/- 5.42              Node   314.05085 +/- 0.06
e   0.8981035 +/- 0.0185            Incl.   79.49210 +/- 0.28
P 159.53                   H 17.0   G  0.15   U  8.5  
q 2.99728404 +/- 0.00401    Q 55.8327280 +/- 6.92
From 16 observations 2020 July 1-26; mean residual 0".20
Residuals in arcseconds: 
200701 F51  .06-  .58-    200721 F51  .06+  .01-    200726 474  .13-  .07+    
200701 F51  .18+  .18+    200723 568  .02+  .01+    200726 474  .30-  .38-    
200701 F51  .05+  .16+    200723 568  .01+  .08-    200726 474  .37+  .37+    
200701 F51  .17-  .24+    200723 568  .01+  .00     200726 474  .08+  .02+    
200721 F51  .03-  .12+    200723 474  .26-  .26-    
200721 F51  .02+  .05+    200723 474  .16+  .14+    

Ephemerides (geocentric):
Date (UTC) HH   RA              Dec         delta   r     elong  mag " sig PA
---- -- -- --  -------------   -----------  ------ ------ -----  --- ---- ---
2020 08 06 06  21 16 01.779   -35 04 16.25  2.0975 3.0759 161.4 21.5 4.70  85
2020 08 06 07  21 15 55.827   -35 03 43.74  2.0974 3.0758 161.4 21.5 4.74  85
2020 08 06 08  21 15 49.877   -35 03 11.20  2.0973 3.0757 161.4 21.5 4.77  85
2020 08 06 09  21 15 43.927   -35 02 38.61  2.0972 3.0756 161.4 21.5 4.81  85
2020 08 06 10  21 15 37.978   -35 02 06.00  2.0971 3.0755 161.4 21.5 4.84  85
2020 08 06 11  21 15 32.029   -35 01 33.34  2.0970 3.0755 161.4 21.5 4.88  85
2020 08 06 12  21 15 26.081   -35 01 00.65  2.0969 3.0754 161.4 21.5 4.91  85
2020 08 06 13  21 15 20.133   -35 00 27.92  2.0968 3.0753 161.5 21.5 4.95  85
2020 08 06 14  21 15 14.186   -34 59 55.16  2.0967 3.0752 161.5 21.5 4.98  85
2020 08 06 15  21 15 08.240   -34 59 22.36  2.0966 3.0751 161.5 21.5 5.02  85
2020 08 06 16  21 15 02.294   -34 58 49.53  2.0965 3.0750 161.5 21.5 5.06  85
2020 08 06 17  21 14 56.349   -34 58 16.66  2.0964 3.0749 161.5 21.5 5.09  85
2020 08 06 18  21 14 50.405   -34 57 43.75  2.0963 3.0748 161.5 21.5 5.13  86
2020 08 06 19  21 14 44.462   -34 57 10.81  2.0963 3.0748 161.5 21.5 5.16  86
2020 08 06 20  21 14 38.519   -34 56 37.83  2.0962 3.0747 161.5 21.5 5.20  86
2020 08 06 21  21 14 32.576   -34 56 04.82  2.0961 3.0746 161.5 21.5 5.24  86
2020 08 06 22  21 14 26.635   -34 55 31.77  2.0960 3.0745 161.5 21.5 5.28  86
2020 08 06 23  21 14 20.694   -34 54 58.69  2.0959 3.0744 161.5 21.5 5.31  86
2020 08 07 00  21 14 14.754   -34 54 25.56  2.0958 3.0743 161.5 21.5 5.35  86
2020 08 07 01  21 14 08.815   -34 53 52.41  2.0957 3.0742 161.5 21.5 5.39  86
2020 08 07 02  21 14 02.876   -34 53 19.22  2.0956 3.0742 161.5 21.5 5.43  86
2020 08 07 03  21 13 56.938   -34 52 45.99  2.0955 3.0741 161.5 21.5 5.46  86
2020 08 07 04  21 13 51.001   -34 52 12.72  2.0955 3.0740 161.5 21.5 5.50  86
2020 08 07 05  21 13 45.065   -34 51 39.42  2.0954 3.0739 161.5 21.5 5.54  86
2020 08 07 06  21 13 39.130   -34 51 06.09  2.0953 3.0738 161.5 21.5 5.58  86
2020 08 07 07  21 13 33.195   -34 50 32.72  2.0952 3.0737 161.5 21.5 5.62  86
2020 08 07 08  21 13 27.261   -34 49 59.31  2.0951 3.0736 161.5 21.5 5.66  86
2020 08 07 09  21 13 21.328   -34 49 25.87  2.0951 3.0735 161.5 21.5 5.69  86
2020 08 07 10  21 13 15.396   -34 48 52.39  2.0950 3.0735 161.5 21.5 5.73  86
2020 08 07 11  21 13 09.464   -34 48 18.88  2.0949 3.0734 161.5 21.5 5.77  87
2020 08 07 12  21 13 03.533   -34 47 45.33  2.0948 3.0733 161.5 21.5 5.81  87
2020 08 07 13  21 12 57.604   -34 47 11.75  2.0947 3.0732 161.5 21.5 5.85  87
2020 08 07 14  21 12 51.675   -34 46 38.13  2.0947 3.0731 161.5 21.5 5.89  87
2020 08 07 15  21 12 45.747   -34 46 04.48  2.0946 3.0730 161.5 21.5 5.93  87
2020 08 07 16  21 12 39.819   -34 45 30.79  2.0945 3.0729 161.5 21.5 5.97  87
2020 08 07 17  21 12 33.893   -34 44 57.06  2.0944 3.0729 161.5 21.5 6.01  87
2020 08 07 18  21 12 27.968   -34 44 23.30  2.0944 3.0728 161.5 21.5 6.05  87
2020 08 07 19  21 12 22.043   -34 43 49.50  2.0943 3.0727 161.5 21.5 6.09  87
2020 08 07 20  21 12 16.119   -34 43 15.67  2.0942 3.0726 161.5 21.5 6.13  87
2020 08 07 21  21 12 10.197   -34 42 41.81  2.0941 3.0725 161.5 21.5 6.17  87
2020 08 07 22  21 12 04.275   -34 42 07.91  2.0941 3.0724 161.5 21.5 6.22  87
2020 08 07 23  21 11 58.354   -34 41 33.97  2.0940 3.0723 161.5 21.5 6.26  87
2020 08 08 00  21 11 52.434   -34 41 00.00  2.0939 3.0723 161.5 21.5 6.30  87
2020 08 08 01  21 11 46.515   -34 40 25.99  2.0939 3.0722 161.5 21.5 6.34  87
2020 08 08 02  21 11 40.597   -34 39 51.95  2.0938 3.0721 161.5 21.5 6.38  87
2020 08 08 03  21 11 34.680   -34 39 17.87  2.0937 3.0720 161.5 21.5 6.42  87
2020 08 08 04  21 11 28.764   -34 38 43.76  2.0937 3.0719 161.5 21.5 6.46  87
2020 08 08 05  21 11 22.849   -34 38 09.61  2.0936 3.0718 161.4 21.5 6.51  87